TimeCST,TemperatureF,Dew PointF,Humidity,Sea Level PressureIn,VisibilityMPH,Wind Direction,Wind SpeedMPH,Gust SpeedMPH,PrecipitationIn,Events,Conditions,WindDirDegrees,DateUTC
12:15 AM,34.9,28.0,76,29.90,10.0,South,8.1,-,N/A,,Clear,180,2013-11-15 06:15:00
12:55 AM,34.7,28.0,77,29.90,10.0,SW,5.8,-,N/A,,Clear,220,2013-11-15 06:55:00
1:15 AM,34.9,28.0,76,29.90,10.0,WSW,6.9,-,N/A,,Clear,240,2013-11-15 07:15:00
1:35 AM,35.4,28.2,75,29.90,10.0,SW,8.1,-,N/A,,Clear,230,2013-11-15 07:35:00
1:55 AM,35.6,27.7,73,29.89,10.0,SW,5.8,-,N/A,,Clear,230,2013-11-15 07:55:00
2:15 AM,36.0,28.0,73,29.89,10.0,SW,4.6,-,N/A,,Clear,220,2013-11-15 08:15:00
2:35 AM,33.8,27.3,77,29.89,10.0,SSW,6.9,-,N/A,,Clear,210,2013-11-15 08:35:00
2:55 AM,33.1,27.0,78,29.89,10.0,SSW,5.8,-,N/A,,Clear,210,2013-11-15 08:55:00
3:15 AM,33.6,27.3,78,29.89,10.0,SSW,8.1,-,N/A,,Clear,200,2013-11-15 09:15:00
3:35 AM,32.5,27.1,80,29.88,10.0,SSW,8.1,-,N/A,,Clear,200,2013-11-15 09:35:00
3:55 AM,31.8,27.3,83,29.88,10.0,SSW,9.2,-,N/A,,Clear,210,2013-11-15 09:55:00
4:15 AM,30.9,26.8,85,29.88,10.0,SW,5.8,-,N/A,,Clear,220,2013-11-15 10:15:00
4:35 AM,32.0,27.5,83,29.88,10.0,SW,6.9,-,N/A,,Clear,220,2013-11-15 10:35:00
4:55 AM,30.9,27.1,86,29.88,10.0,SSW,8.1,-,N/A,,Clear,210,2013-11-15 10:55:00
5:15 AM,29.5,26.6,89,29.88,10.0,SSW,8.1,-,N/A,,Clear,210,2013-11-15 11:15:00
5:35 AM,30.9,27.5,87,29.87,10.0,SW,6.9,-,N/A,,Clear,220,2013-11-15 11:35:00
5:55 AM,31.1,27.1,85,29.87,10.0,SSW,8.1,-,N/A,,Clear,200,2013-11-15 11:55:00
6:15 AM,28.8,25.9,89,29.87,10.0,SSW,5.8,-,N/A,,Clear,200,2013-11-15 12:15:00
6:35 AM,28.4,26.4,92,29.88,10.0,SSW,8.1,-,N/A,,Clear,200,2013-11-15 12:35:00
6:55 AM,29.1,28.9,99,29.88,10.0,South,8.1,-,N/A,,Clear,190,2013-11-15 12:55:00
7:15 AM,28.6,28.4,99,29.89,10.0,SSW,9.2,-,N/A,,Clear,200,2013-11-15 13:15:00
7:35 AM,29.5,29.1,99,29.89,10.0,SSW,6.9,-,N/A,,Clear,200,2013-11-15 13:35:00
7:55 AM,30.6,29.8,97,29.89,10.0,SSW,6.9,-,N/A,,Clear,210,2013-11-15 13:55:00
8:15 AM,32.5,30.7,93,29.90,10.0,South,6.9,-,N/A,,Clear,190,2013-11-15 14:15:00
8:35 AM,34.7,31.5,88,29.89,10.0,South,9.2,-,N/A,,Clear,190,2013-11-15 14:35:00
8:55 AM,35.6,31.6,85,29.89,10.0,South,6.9,-,N/A,,Clear,180,2013-11-15 14:55:00
9:15 AM,37.8,32.2,80,29.89,10.0,SSW,8.1,-,N/A,,Clear,200,2013-11-15 15:15:00
9:35 AM,39.9,32.9,76,29.89,10.0,SSW,8.1,-,N/A,,Clear,200,2013-11-15 15:35:00
9:55 AM,41.7,33.8,73,29.88,10.0,South,8.1,-,N/A,,Clear,180,2013-11-15 15:55:00
10:15 AM,43.7,34.2,69,29.88,10.0,South,6.9,-,N/A,,Clear,190,2013-11-15 16:15:00
10:35 AM,45.9,34.5,65,29.85,10.0,South,11.5,-,N/A,,Clear,170,2013-11-15 16:35:00
10:55 AM,48.0,35.2,61,29.87,10.0,South,8.1,-,N/A,,Clear,190,2013-11-15 16:55:00
11:15 AM,48.9,34.5,58,29.87,10.0,SSW,8.1,-,N/A,,Clear,200,2013-11-15 17:15:00
11:35 AM,50.2,34.7,55,29.86,10.0,South,9.2,-,N/A,,Clear,180,2013-11-15 17:35:00
11:55 AM,51.8,34.5,52,29.85,10.0,South,12.7,-,N/A,,Clear,190,2013-11-15 17:55:00
12:15 PM,52.7,34.7,50,29.84,10.0,South,13.8,-,N/A,,Clear,170,2013-11-15 18:15:00
12:35 PM,53.4,34.2,48,29.82,10.0,South,13.8,17.3,N/A,,Clear,190,2013-11-15 18:35:00
12:55 PM,54.5,34.2,46,29.80,10.0,SSW,11.5,17.3,N/A,,Clear,200,2013-11-15 18:55:00
1:15 PM,55.9,34.5,45,29.79,10.0,South,15.0,19.6,N/A,,Clear,190,2013-11-15 19:15:00
1:35 PM,56.3,34.5,44,29.79,10.0,South,15.0,-,N/A,,Clear,180,2013-11-15 19:35:00
1:55 PM,56.7,34.5,43,29.78,10.0,South,13.8,-,N/A,,Clear,170,2013-11-15 19:55:00
2:15 PM,57.2,34.7,43,29.77,10.0,South,17.3,20.7,N/A,,Clear,180,2013-11-15 20:15:00
2:35 PM,57.2,34.5,43,29.76,10.0,South,15.0,-,N/A,,Clear,180,2013-11-15 20:35:00
2:55 PM,56.8,34.5,43,29.75,10.0,South,17.3,21.9,N/A,,Clear,180,2013-11-15 20:55:00
3:15 PM,57.2,34.7,43,29.74,10.0,South,15.0,-,N/A,,Clear,170,2013-11-15 21:15:00
3:35 PM,56.3,34.9,45,29.73,10.0,South,16.1,-,N/A,,Clear,170,2013-11-15 21:35:00
3:55 PM,55.9,35.2,46,29.73,10.0,South,13.8,-,N/A,,Clear,180,2013-11-15 21:55:00
4:15 PM,55.2,35.6,48,29.72,10.0,South,13.8,19.6,N/A,,Clear,170,2013-11-15 22:15:00
4:35 PM,54.1,36.3,51,29.71,10.0,South,12.7,18.4,N/A,,Clear,170,2013-11-15 22:35:00
4:55 PM,52.5,36.5,54,29.70,10.0,SSE,11.5,-,N/A,,Clear,160,2013-11-15 22:55:00
5:15 PM,50.9,36.5,58,29.71,10.0,SSE,9.2,-,N/A,,Clear,160,2013-11-15 23:15:00
5:35 PM,50.0,36.9,61,29.70,10.0,SSE,10.4,-,N/A,,Clear,160,2013-11-15 23:35:00
5:55 PM,50.0,37.4,62,29.70,10.0,SSE,11.5,17.3,N/A,,Clear,160,2013-11-15 23:55:00
6:15 PM,49.5,37.6,64,29.70,10.0,South,11.5,-,N/A,,Clear,170,2013-11-16 00:15:00
6:35 PM,48.7,37.6,65,29.70,10.0,SSE,10.4,-,N/A,,Clear,160,2013-11-16 00:35:00
6:55 PM,48.2,37.6,67,29.70,10.0,South,10.4,-,N/A,,Clear,170,2013-11-16 00:55:00
7:15 PM,48.4,38.3,68,29.69,10.0,SSE,11.5,-,N/A,,Clear,160,2013-11-16 01:15:00
7:35 PM,49.1,39.2,69,29.69,10.0,SSE,11.5,-,N/A,,Clear,160,2013-11-16 01:35:00
7:55 PM,48.7,39.4,70,29.67,10.0,SSE,11.5,-,N/A,,Clear,160,2013-11-16 01:55:00
8:15 PM,48.4,39.4,71,29.68,10.0,SSE,11.5,-,N/A,,Clear,160,2013-11-16 02:15:00
8:35 PM,48.9,40.1,72,29.68,10.0,South,15.0,-,N/A,,Clear,170,2013-11-16 02:35:00
8:55 PM,49.1,40.5,72,29.68,10.0,South,13.8,-,N/A,,Clear,180,2013-11-16 02:55:00
9:15 PM,48.4,40.5,74,29.68,10.0,South,12.7,-,N/A,,Clear,180,2013-11-16 03:15:00
9:35 PM,47.7,40.8,77,29.68,10.0,South,11.5,-,N/A,,Clear,180,2013-11-16 03:35:00
9:55 PM,47.5,41.4,79,29.67,10.0,South,11.5,-,N/A,,Clear,180,2013-11-16 03:55:00
10:15 PM,47.7,41.9,80,29.67,10.0,South,12.7,-,N/A,,Clear,180,2013-11-16 04:15:00
10:35 PM,47.3,41.9,82,29.66,10.0,South,9.2,-,N/A,,Clear,180,2013-11-16 04:35:00
10:55 PM,47.5,42.6,83,29.65,10.0,South,10.4,-,N/A,,Clear,170,2013-11-16 04:55:00
11:15 PM,48.2,43.0,82,29.65,10.0,South,12.7,-,N/A,,Clear,170,2013-11-16 05:15:00
11:35 PM,47.8,43.2,84,29.64,10.0,South,13.8,-,N/A,,Clear,170,2013-11-16 05:35:00
11:55 PM,48.2,43.5,84,29.62,10.0,SSE,15.0,20.7,N/A,,Clear,160,2013-11-16 05:55:00